Salina, KS

1:39 AM CDT on May 24, 2017 (GMT -0500)
Salina Municipal

Weather History for KSLN - February, 2015

Change the Weather History Date:

Tuesday, February 17, 2015

  Actual Average Record
Temperature  
Mean Temperature 31 °F 36 °F  
Max Temperature 42 °F 47 °F 76 °F (1913)
Min Temperature 19 °F 25 °F -17 °F (1903)
Degree Days  
Heating Degree Days 34 29  
Month to date heating degree days 515 528  
Since 1 July heating degree days 3407 3544  
Cooling Degree Days 0 0  
Month to date cooling degree days 0 0  
Year to date cooling degree days 0 0  
Moisture  
Dew Point 20 °F    
Average Humidity 65    
Maximum Humidity 88    
Minimum Humidity 42    
Precipitation  
Precipitation 0.01 in 0.04 in 1.59 in (1911)
Month to date precipitation 0.10 0.65  
Year to date precipitation 1.30 1.28  
Sea Level Pressure  
Sea Level Pressure 30.15 in    
Wind  
Wind Speed 10 mph (NW)    
Max Wind Speed 40 mph    
Max Gust Speed 48 mph    
Visibility 10 miles    
Events Snow    
T = Trace of Precipitation, MM = Missing Value Source: NWS Daily Summary

Daily Weather History Graph

Daily Weather History Graph

Search for Another Location

Airport or City:

Trip Planner

Search our weather history database for the weather conditions in past years. The results will help you decide how hot, cold, wet, or windy it might be!

Date:

Astronomy

Feb. 17, 2015 Rise Set
Actual Time 7:19 AM CST 6:10 PM CST
Civil Twilight 6:52 AM CST 6:37 PM CST
Nautical Twilight 6:21 AM CST 7:08 PM CST
Astronomical Twilight 5:50 AM CST 7:39 PM CST
Moon 6:03 AM CST (2/17) 5:00 PM CST (2/17)
Length of Visible Light 11h 45m
Length of Day
10h 50m
Waning Crescent, 2% of the Moon is Illuminated
Feb 17
Waning Crescent
Feb 18
New
Feb 25
First Quarter
Mar 5
Full
Mar 13
Last Quarter

Hourly Weather History & Observations

Time (CST) Temp. Windchill Dew Point Humidity Pressure Visibility Wind Dir Wind Speed Gust Speed Precip Events Conditions
12:53 AM 30.9 °F 22.8 °F 24.1 °F 76% 30.14 in 10.0 mi SSW 9.2 mph - N/A   Overcast
1:53 AM 30.0 °F - 23.0 °F 75% 30.13 in 10.0 mi Calm Calm - N/A   Overcast
2:53 AM 25.0 °F 18.1 °F 21.0 °F 85% 30.12 in 10.0 mi South 5.8 mph - N/A   Clear
3:53 AM 28.0 °F 22.8 °F 23.0 °F 81% 30.12 in 10.0 mi West 4.6 mph - N/A   Mostly Cloudy
4:53 AM 27.0 °F 19.5 °F 23.0 °F 85% 30.13 in 10.0 mi NW 6.9 mph - N/A   Partly Cloudy
5:51 AM 28.4 °F 17.5 °F 24.8 °F 86% 30.12 in 10.0 mi NW 13.8 mph - N/A   Overcast
5:53 AM 28.9 °F 18.2 °F 25.0 °F 85% 30.15 in 10.0 mi NNW 13.8 mph - N/A   Overcast
6:31 AM 30.2 °F 20.2 °F 24.8 °F 80% 30.13 in 10.0 mi North 12.7 mph - N/A   Mostly Cloudy
6:44 AM 28.9 °F 20.4 °F 24.1 °F 82% 30.14 in 10.0 mi North 9.2 mph - N/A   Scattered Clouds
6:53 AM 28.9 °F 20.4 °F 24.1 °F 82% 30.17 in 10.0 mi North 9.2 mph - N/A   Partly Cloudy
7:53 AM 26.1 °F 21.9 °F 21.9 °F 84% 30.18 in 10.0 mi NNW 3.5 mph - N/A   Clear
8:53 AM 30.2 °F - 24.8 °F 80% 30.14 in 10.0 mi Calm Calm - N/A   Clear
9:53 AM 34.0 °F 29.8 °F 24.1 °F 67% 30.17 in 10.0 mi Variable 4.6 mph - N/A   Clear
10:53 AM 36.0 °F 31.1 °F 24.1 °F 62% 30.15 in 10.0 mi West 5.8 mph - N/A   Overcast
11:53 AM 37.9 °F 30.5 °F 25.0 °F 60% 30.12 in 10.0 mi WSW 11.5 mph - N/A   Overcast
12:53 PM 39.9 °F 30.8 °F 26.1 °F 58% 30.08 in 10.0 mi West 18.4 mph 21.9 mph N/A   Overcast
1:34 PM 37.0 °F 24.3 °F 30.0 °F 76% 30.05 in 1.8 mi NW 31.1 mph 44.9 mph 0.00 in Snow Light Snow
1:44 PM 37.9 °F 24.7 °F 32.0 °F 79% 30.04 in 10.0 mi NW 35.7 mph 42.6 mph 0.00 in Snow Light Snow
1:53 PM 37.0 °F 23.9 °F 30.0 °F 76% 30.09 in 10.0 mi NW 33.4 mph 39.1 mph 0.00 in   Mostly Cloudy
2:53 PM 32.0 °F 17.4 °F 19.0 °F 59% 30.15 in 10.0 mi NNW 31.1 mph 39.1 mph 0.01 in   Overcast
3:53 PM 30.9 °F 17.5 °F 12.0 °F 46% 30.18 in 10.0 mi North 24.2 mph 35.7 mph N/A   Partly Cloudy
4:53 PM 30.9 °F 17.2 °F 10.0 °F 42% 30.19 in 10.0 mi NNW 25.3 mph 28.8 mph N/A   Clear
5:53 PM 28.9 °F 18.2 °F 8.1 °F 41% 30.19 in 10.0 mi North 13.8 mph - N/A   Clear
6:53 PM 24.1 °F 16.0 °F 10.0 °F 55% 30.20 in 10.0 mi NNW 6.9 mph - N/A   Clear
7:53 PM 24.1 °F - 10.0 °F 55% 30.19 in 10.0 mi Calm Calm - N/A   Clear
8:53 PM 21.0 °F 13.4 °F 12.0 °F 68% 30.19 in 10.0 mi WSW 5.8 mph - N/A   Clear
9:53 PM 21.9 °F 13.4 °F 10.0 °F 60% 30.22 in 10.0 mi NE 6.9 mph - N/A   Clear
10:53 PM 21.9 °F 17.2 °F 8.1 °F 55% 30.23 in 10.0 mi North 3.5 mph - N/A   Clear
11:53 PM 19.9 °F 14.9 °F 8.1 °F 60% 30.23 in 10.0 mi NW 3.5 mph - N/A   Clear